Torna al catalogo

STARLINK-5472

AttivoComunicazioniVLEO
NORAD 54767·PAYLOAD·🇺🇸 United States

Lanciato Dec 17, 2022 da Cape Canaveral Space Force Station

Loading…

Prossimi Passaggi (prossime 24 ore)

TLE

AggiornatoSource: CelesTrak SupGP

Epoca: Sep 15, 2026, 02:33 UTC

1 54767C 22175K   26258.10673611 -.00011034  00000+0 -69188-3 0  2587
2 54767  53.1585 273.1182 0001168  87.7457 328.3887 15.08844305    14

Traccia STARLINK-5472 in tempo reale con AllMySat

Download on the App Store